Погода в Кобякове

Россия / Республика Хакасия     54°47′50″N   89°46′28″E
темп.,
°C
ветер,
м/с
пор.,
м/с
влажн.,
%
обл.,
%
осадки,
мм/ч
давл.,
гПа
погр.,
м
24 мая, вт
вт2401:00+8зюз11620 0.0 102510
04:00+7зюз11690 0.0 102610
07:00+10ю11600 0.0 1026134
10:00+16юв35390 0.0 1023959
13:00+21вюв45260 0.0 10201302
16:00+23в55230 0.0 10191470
19:00+22вюв46340 0.0 10181164
22:00+15всв2255100 0.0 101811
25 мая, ср
ср2501:00+13с1161100 0.0 101710
04:00+11ссз116914 0.0 101710
07:00+14сз1263100 0.0 1017137
10:00+19ссв2348100 0.0 1015661
13:00+23св4433100 0.0 10141390
16:00+25св4528100 0.0 10131766
19:00+23с5736100 0.0 1013679
22:00+17с335075 0.0 101539
26 мая, чт
чт2601:00+14ссз22565 0.0 101513
04:00+12зсз11640 0.0 101610
07:00+15сз22580 0.0 1016164
10:00+20ссв44550 0.0 10151006
13:00+22ссв434498 0.0 10142050
16:00+22с43370 0.0 10131683
19:00+21ссв55360 0.0 10121327
22:00+15с34520 0.0 101351
27 мая, пт
пт2701:00+12ссз226038 0.0 101212
04:00+10сз11655 0.0 101210
07:00+13с1256100 0.0 1011159
10:00+18ссв33378 0.0 10101291
13:00+21с55305 0.0 10102215
16:00+21ссв55240 0.0 10112342
19:00+20всв54325 0.0 10112021
22:00+13в3849100 0.0 1014168
28 мая, сб
сб2801:00+10в11606 0.0 101515
04:00+9в116483 0.0 101610
07:00+12вюв1254100 0.0 1016176
10:00+17вюв453587 0.0 10151171
13:00+20вюв4428100 0.0 10141708
16:00+21вюв3226100 0.0 10131857
19:00+20вюв4531100 0.0 1012623
22:00+13в2247100 0.0 101414